Temp
14 13 14 16 17 18 18 18 18 17 17 17 17 16 14 14 15 15 15 15 15 15 15 14 14 14 13 13 12 12 13 13 13 12 12 14 14 15 15 15 14 14 16
15 13 13 14 15 16 16 17 17 17 17 17 16 15 14 14 14 14 14 14 15 14 14 14 14 14 13 12 12 12 12 12 13 13 13 14 16 17 15 15 15 15 15
15 14 13 12 14 14 15 16 16 17 17 16 16 16 15 15 14 13 13 13 13 13 13 13 13 13 12 11 11 10 11 11 12 12 13 13 14 13 14 15 15 15 14
14 14 13 13 13 13 15 15 16 16 16 16 16 15 12 11 10 11 12 12 12 12 12 12 11 11 10 9 9 10 9 9 10 11 12 11 11 12 13 15 14 14 15
14 13 13 12 12 13 14 14 14 14 14 14 14 13 12 11 12 12 12 12 11 11 11 10 10 10 9 8 8 8 8 8 8 9 9 9 10 11 12 11 13 12 13
13 13 12 12 12 12 13 13 13 12 13 13 13 12 12 11 11 10 9 8 8 8 8 9 8 7 7 7 7 7 7 7 7 8 8 8 9 9 10 10 10 11 11
13 13 12 11 11 12 12 12 12 11 12 11 11 11 10 10 9 8 8 8 7 7 7 7 7 6 6 6 6 6 6 6 6 6 7 7 7 7 8 8 9 10 10
13 13 12 11 10 11 11 11 11 10 10 10 10 10 9 9 8 8 7 6 6 6 6 6 6 6 6 5 5 5 5 5 5 5 5 6 6 6 7 7 7 8 9
12 12 11 10 10 10 10 10 10 9 9 9 9 9 8 8 7 7 7 6 6 5 6 6 6 6 5 4 4 4 5 4 5 5 4 4 5 5 5 6 6 7 7
12 11 10 9 9 9 9 9 9 8 8 8 8 8 8 8 7 7 6 6 6 5 5 5 4 4 3 3 3 3 4 4 4 4 4 4 4 4 5 5 5 6 5
12 11 10 8 8 8 8 8 8 8 8 8 7 7 6 6 6 6 5 5 5 4 3 3 3 2 2 2 2 3 3 3 3 3 3 3 4 3 3 4 4 4 4
12 10 9 8 7 7 7 7 7 7 7 7 7 6 6 6 6 5 4 4 3 3 3 3 2 2 2 2 2 2 2 2 2 2 2 2 2 2 2 2 3 3 3
10 9 8 8 7 6 6 7 7 7 6 6 6 6 5 5 4 4 3 3 3 3 3 2 1 1 1 1 1 1 1 2 2 2 2 1 1 1 1 1 2 2 2
10 9 8 7 6 6 6 6 6 6 6 6 6 5 5 4 3 3 3 3 2 2 2 1 0 0 -0 -0 1 1 1 1 1 1 1 1 1 1 1 1 2 2 2
10 9 8 7 6 5 5 6 6 5 5 5 4 4 3 2 3 3 2 2 2 1 0 0 -0 -1 -1 0 0 1 1 1 0 0 0 0 0 0 1 1 1 1 1
10 9 7 6 5 5 5 5 5 5 5 4 3 2 2 2 2 2 1 1 1 0 0 -1 -1 -1 -1 -1 -0 -0 -0 -0 -0 -0 -0 -0 -0 -0 0 -0 0 1 0
10 8 7 6 5 5 5 5 5 4 4 3 2 2 1 2 1 1 1 0 -0 -0 -1 -2 -2 -2 -2 -2 -1 -1 -1 -1 -1 -1 -1 -1 -1 -1 -1 -1 -0 -1 -0
8 7 6 5 5 5 5 5 4 3 3 2 2 1 1 1 1 1 0 -0 -1 -2 -2 -2 -2 -2 -3 -3 -2 -2 -1 -1 -1 -1 -1 -1 -1 -1 -1 -0 -2 -1 -1
6 5 5 5 4 5 4 4 3 3 2 1 1 0 0 0 0 -0 -0 -1 -2 -2 -2 -2 -3 -3 -3 -3 -3 -2 -1 -1 -1 -1 -1 -2 -1 -1 -1 -2 -1 -1 -1
5 4 5 4 4 4 4 3 2 2 1 1 0 0 0 -0 -0 -1 -1 -1 -2 -3 -3 -3 -4 -4 -3 -4 -3 -2 -2 -1 -1 -2 -2 -1 -1 -1 -2 -1 -2 -2 -2
4 5 5 4 4 3 3 2 2 1 1 0 0 0 -0 -0 -1 -1 -1 -2 -3 -3 -4 -4 -4 -4 -4 -3 -3 -2 -2 -2 -2 -3 -2 -2 -2 -2 -2 -2 -3 -3 -2
4 4 3 3 3 3 2 1 1 1 0 -0 -0 -0 -0 -1 -1 -1 -2 -3 -4 -4 -4 -4 -4 -3 -3 -3 -3 -2 -2 -2 -2 -2 -2 -2 -2 -2 -2 -3 -3 -3 -3
3 3 4 3 2 2 1 1 0 -0 -0 -0 -0 -1 -1 -1 -1 -2 -3 -4 -4 -4 -4 -4 -3 -3 -3 -3 -3 -3 -3 -2 -2 -2 -3 -3 -2 -2 -4 -4 -4 -4 -5
3 3 3 2 1 1 1 0 -0 -1 -1 -1 -1 -1 -1 -2 -3 -3 -4 -5 -5 -5 -4 -4 -3 -4 -4 -4 -4 -4 -4 -3 -3 -4 -3 -3 -3 -4 -4 -5 -5 -5 -6
3 3 2 2 1 0 0 -0 -0 -1 -1 -1 -1 -2 -3 -3 -4 -4 -5 -5 -4 -4 -3 -3 -3 -4 -4 -4 -3 -3 -3 -3 -4 -3 -4 -4 -5 -5 -5 -5 -6 -6 -6
2 2 1 1 -0 -0 -0 -1 -1 -1 -2 -2 -3 -3 -4 -4 -5 -5 -5 -5 -5 -4 -4 -4 -4 -4 -4 -4 -3 -3 -3 -4 -4 -4 -5 -6 -5 -6 -6 -6 -6 -6 -6
Height
777 776 772 768 766 764 762 760 757 759 761 762 765 767 769 771 772 773 774 774 774 775 774 773 772 770 768 766 764 761 758 754 751 746 739 734 731 726 723 719 716 713 709
776 776 775 772 770 769 766 762 762 764 764 763 766 769 773 775 776 777 777 777 776 776 775 774 772 771 768 766 763 760 757 754 751 747 740 727 723 719 719 717 712 708 705
775 778 777 775 776 774 769 768 767 768 768 769 771 773 775 777 779 779 779 779 779 778 776 775 773 771 768 765 762 759 757 753 749 747 745 731 721 719 716 711 707 703 700
775 777 776 777 779 779 776 774 772 772 773 774 775 776 778 781 784 784 782 781 780 778 777 775 773 770 767 764 761 758 756 753 749 745 743 740 734 723 702 704 703 701 695
773 776 778 780 781 781 780 778 777 776 778 779 780 781 782 784 785 784 783 781 780 778 777 775 772 769 766 763 760 756 753 751 749 745 741 736 731 726 718 694 696 697 693
772 777 780 782 782 783 782 782 781 783 783 782 783 783 784 785 784 783 782 781 779 777 774 772 769 767 764 761 758 755 752 749 746 742 739 735 730 725 721 712 697 691 686
770 776 780 783 784 784 785 785 784 784 785 785 785 786 786 786 785 784 783 781 778 776 773 771 768 765 763 760 757 753 749 746 743 739 736 733 729 724 718 711 699 689 680
772 775 779 782 785 786 787 787 787 787 787 786 787 788 788 788 787 786 785 783 781 778 775 771 768 764 761 757 754 750 747 744 740 737 734 730 725 720 715 709 701 686 678
771 775 780 783 786 788 788 788 789 788 788 788 789 789 789 788 787 786 784 781 780 777 774 770 767 764 760 756 752 749 745 741 737 733 730 726 720 715 711 705 698 692 680
771 775 780 784 787 788 789 791 790 789 789 790 790 790 789 788 787 785 783 781 779 777 774 770 767 763 759 755 751 746 742 738 734 730 726 721 716 711 706 701 696 690 686
770 774 780 785 787 788 790 790 790 791 790 791 791 790 790 788 786 784 782 781 779 777 773 769 765 761 756 752 747 743 738 735 730 726 721 717 712 707 701 696 691 686 682
769 775 779 784 786 788 790 790 791 791 792 791 791 790 789 787 785 784 782 780 778 775 771 767 762 758 754 749 745 740 736 732 726 722 717 712 707 701 696 690 684 680 675
770 775 780 783 786 788 789 790 791 791 792 791 790 788 787 786 784 783 782 778 775 772 768 764 760 755 750 746 742 738 733 728 723 718 712 706 702 695 691 686 679 673 667
769 774 779 782 785 788 789 790 791 791 790 789 787 787 785 785 784 782 779 776 772 769 765 761 757 752 748 743 739 734 729 724 718 713 708 702 698 692 686 679 673 667 660
768 772 776 781 784 787 788 789 790 790 789 787 787 786 785 784 782 779 776 773 770 766 762 758 753 749 745 741 735 730 724 717 711 707 702 698 693 688 682 675 667 661 654
765 769 774 778 782 786 787 788 789 788 788 788 788 787 784 782 779 776 773 770 766 763 758 753 750 746 741 737 732 726 719 713 708 702 696 691 686 681 675 669 662 656 649
761 766 771 777 781 784 786 787 787 787 788 788 788 786 784 779 776 773 770 767 762 758 754 751 747 742 737 732 727 722 716 709 704 698 691 684 680 675 668 660 654 648 642
761 766 771 777 781 784 785 786 786 787 787 787 785 785 781 776 774 770 767 763 759 755 752 748 743 737 732 728 723 718 711 705 698 693 687 680 674 668 661 652 644 638 632
761 766 771 776 780 782 783 785 786 786 786 785 784 782 778 775 771 768 764 760 756 752 748 745 739 734 729 725 720 713 706 698 692 687 682 676 668 662 655 646 638 630 621
763 768 773 776 779 781 783 784 784 784 784 783 781 779 777 774 770 766 762 758 754 749 744 739 736 731 725 720 716 709 702 694 687 682 675 670 663 655 649 642 635 623 614
767 771 774 777 779 781 782 782 783 782 782 780 779 777 774 771 767 763 758 754 750 745 740 734 730 726 721 716 711 705 698 691 683 675 668 662 655 647 642 637 630 621 609
770 773 775 777 779 780 780 781 781 780 780 779 777 774 771 767 763 758 754 751 747 742 737 730 724 721 716 711 706 701 694 688 680 671 663 656 647 642 636 630 623 614 605
771 773 774 776 778 778 779 779 779 779 777 775 773 771 767 763 759 755 751 748 744 740 734 728 721 714 711 706 701 695 689 683 675 668 659 651 643 635 630 625 617 609 602
770 771 773 775 777 776 777 778 777 776 774 772 770 766 761 758 756 753 750 746 742 736 731 725 719 713 707 701 696 689 683 676 668 661 654 646 638 632 627 618 611 605 598
768 769 771 773 775 776 776 775 774 772 771 768 765 761 758 756 753 750 747 743 739 735 729 723 718 710 703 698 692 685 677 670 664 656 649 642 635 629 621 613 606 599 591
766 769 771 773 774 774 773 773 772 770 767 764 760 758 756 753 751 746 741 739 735 730 726 721 715 708 702 694 688 681 674 667 661 653 648 641 633 626 618 609 600 593 585
Wind_Speed
3 6 12 17 20 23 24 26 25 19 15 15 13 16 17 17 20 19 18 18 17 16 15 14 14 15 14 14 14 14 15 17 16 17 16 17 23 25 22 24 24 25 30
5 7 12 18 22 23 26 30 29 24 22 22 18 18 19 23 24 23 22 21 20 19 18 18 18 18 16 16 16 15 15 15 17 13 19 6 14 20 17 22 26 27 28
9 6 10 14 19 22 26 28 30 30 27 23 23 24 24 21 20 21 21 20 18 18 18 18 18 17 17 16 16 14 13 14 16 14 9 6 6 12 22 23 28 25 22
7 6 10 13 15 19 24 27 29 29 28 26 26 26 21 16 14 16 17 18 18 19 20 20 20 19 18 18 17 17 17 16 16 18 11 19 20 8 12 15 24 27 24
9 8 8 11 14 18 22 26 27 28 26 25 23 23 21 17 16 16 17 18 19 19 21 21 21 21 19 19 19 20 20 16 16 15 18 19 18 18 10 15 11 26 25
9 8 10 12 14 17 21 24 26 24 23 23 22 21 19 16 16 18 18 17 17 18 22 22 21 19 18 18 17 17 17 17 17 18 18 17 16 13 12 13 16 18 27
11 10 8 10 12 16 17 19 22 22 20 21 21 20 19 18 18 17 17 19 19 19 23 23 22 20 19 19 18 20 18 19 20 18 18 17 19 22 22 19 13 13 27
9 9 9 11 12 14 16 18 19 19 19 19 19 18 18 18 17 16 16 15 15 15 19 20 19 21 21 21 20 18 16 18 18 16 18 21 22 22 22 21 14 13 12
10 10 10 12 13 13 15 16 17 18 17 17 17 17 17 17 16 16 16 16 16 15 19 21 21 22 22 21 20 18 17 18 19 19 20 21 22 22 22 23 23 12 11
10 9 10 13 13 14 15 15 15 17 16 16 15 15 15 15 15 15 17 18 18 19 19 20 20 20 20 19 20 19 19 20 20 21 23 21 22 23 21 21 23 21 14
10 10 11 13 14 15 14 14 14 15 15 14 13 14 14 14 15 17 17 17 17 18 18 19 19 19 20 21 21 20 19 23 22 22 23 22 21 26 26 23 23 24 22
9 10 14 14 13 13 13 14 13 13 12 11 11 12 13 15 16 16 16 16 17 18 19 21 20 20 21 21 21 20 22 23 25 26 20 24 26 27 25 25 26 26 26
9 10 12 13 12 12 12 13 11 11 9 8 10 12 13 14 14 15 16 17 19 20 22 22 21 21 23 23 21 22 24 24 24 24 25 27 28 28 27 27 27 23 27
9 9 9 11 12 11 12 11 9 7 6 7 10 10 12 12 13 14 17 19 20 21 23 23 23 23 22 21 21 25 26 26 26 25 27 28 27 28 30 29 27 28 28
9 11 11 10 12 11 11 9 7 5 6 8 8 10 10 11 14 17 19 20 21 22 22 23 23 22 21 20 26 26 27 28 29 29 29 28 28 30 29 30 32 31 31
9 10 11 13 12 12 10 7 5 6 7 7 8 8 10 13 15 18 21 22 22 23 25 24 22 22 22 24 25 27 28 28 29 29 31 30 30 29 32 33 33 35 35
8 10 11 12 13 12 9 6 5 4 5 6 8 12 12 15 18 21 22 22 24 26 23 23 24 24 24 25 27 28 28 28 29 29 30 31 29 31 31 33 34 31 34
6 9 12 14 14 11 8 6 3 3 4 7 10 11 14 18 20 22 23 24 23 22 22 23 24 26 25 26 27 28 28 29 28 29 30 30 31 31 34 35 25 31 39
5 11 18 17 14 10 7 4 2 3 5 8 11 13 16 18 21 23 24 24 21 24 24 23 24 26 26 26 26 29 29 29 29 28 30 27 33 34 37 33 32 37 38
13 17 16 16 12 9 5 3 1 3 6 10 12 14 16 19 21 22 23 24 25 24 26 26 22 23 26 24 27 30 28 29 29 29 27 30 35 39 29 35 35 33 35
15 16 15 12 9 7 4 2 1 5 8 11 13 15 18 20 20 23 24 27 27 24 25 25 23 22 21 25 29 30 31 29 30 27 30 30 37 28 35 39 34 32 41
13 13 13 10 7 5 3 1 4 7 10 12 14 17 20 21 23 23 26 27 24 23 24 25 24 23 24 26 28 31 31 33 31 30 32 35 32 41 38 37 36 38 36
12 11 11 10 7 4 2 3 5 8 10 14 17 19 22 23 23 24 24 22 20 20 23 22 23 25 26 26 27 30 30 32 34 32 34 37 43 39 31 35 38 34 29
12 11 11 8 5 3 1 3 6 9 12 15 19 22 24 23 24 25 21 19 21 21 21 22 23 25 26 25 27 28 29 31 30 26 34 39 36 28 32 33 30 28 28
12 10 8 6 5 2 1 4 7 10 13 17 20 22 23 24 24 21 19 19 19 19 25 25 25 24 24 27 34 35 34 34 30 39 31 29 26 26 29 29 29 30 29
10 9 8 5 3 1 3 5 8 11 14 17 17 20 18 20 20 20 22 17 19 22 24 25 25 27 28 31 34 35 34 32 36 30 25 25 23 25 28 29 30 30 31
Wind_Direction
29 40 65 75 76 71 66 63 66 71 79 79 81 72 71 73 71 68 65 59 55 52 47 39 28 17 6 356 352 339 329 322 319 298 301 288 287 283 282 282 280 281 285
106 59 63 73 72 76 75 71 68 70 74 77 85 96 87 82 81 75 69 63 57 50 43 35 28 19 10 7 4 360 344 326 330 313 306 304 308 291 302 298 286 286 283
125 106 76 68 72 72 74 76 77 75 78 91 96 96 94 81 67 59 57 51 45 39 32 26 20 13 11 5 359 355 354 331 327 332 312 312 306 318 299 296 289 288 290
133 123 98 81 79 80 84 84 82 81 80 82 83 81 77 72 58 55 50 44 34 26 21 16 12 8 4 1 356 349 346 343 333 332 320 312 306 311 307 295 303 292 297
140 124 108 106 102 94 89 87 85 83 83 83 83 82 78 73 61 48 37 30 25 20 15 12 8 6 2 357 352 348 345 341 330 324 318 313 313 306 307 307 315 300 296
143 131 127 121 107 100 95 93 89 84 83 82 78 74 70 58 46 33 27 19 14 13 10 8 6 2 359 354 348 343 340 339 334 329 326 322 317 312 313 303 308 304 302
151 147 141 133 116 104 101 96 93 87 83 78 73 66 60 51 44 33 23 14 8 6 3 2 1 359 355 352 348 345 343 341 334 330 328 326 318 311 304 297 296 296 302
155 152 149 138 125 116 108 103 98 92 83 77 70 61 54 48 41 31 24 19 9 3 360 360 1 359 357 354 350 345 339 336 335 328 328 318 314 307 303 299 296 301 304
159 156 148 144 133 122 110 108 102 93 84 76 67 57 49 41 35 27 20 16 11 3 360 2 359 356 352 350 345 339 335 337 335 324 326 319 318 314 307 300 302 306 308
156 152 146 143 133 122 114 106 96 90 85 74 62 52 43 34 28 22 17 12 7 2 360 357 354 349 345 344 342 337 334 333 330 324 323 320 320 321 316 316 310 307 308
166 155 144 142 134 125 116 105 93 87 80 67 54 43 37 30 23 19 13 7 1 358 357 353 350 345 344 342 339 335 331 328 325 323 319 318 318 317 309 309 304 302 302
157 152 148 144 134 125 116 103 93 85 75 62 51 42 31 22 17 12 6 2 357 356 354 352 349 344 340 338 334 331 328 325 324 322 315 316 316 313 311 308 304 302 299
149 148 146 147 140 132 122 108 97 90 78 61 47 33 23 15 9 2 359 360 356 354 352 351 346 342 339 335 332 328 327 324 320 319 316 316 319 315 315 312 306 306 308
158 154 152 151 145 142 130 119 106 97 79 53 37 26 18 7 359 357 358 356 354 351 349 347 344 340 335 332 331 328 324 321 319 318 317 316 315 314 314 312 312 312 306
164 166 159 157 154 144 138 130 111 85 53 38 26 17 5 360 357 356 353 352 352 348 345 343 342 337 334 332 329 325 323 322 320 320 318 314 313 313 312 313 314 310 307
171 166 160 160 157 155 151 137 103 61 34 20 10 355 359 356 354 352 351 350 346 345 344 343 336 333 332 327 327 326 322 320 319 316 314 314 313 314 313 313 310 309 313
169 165 160 159 160 160 149 124 87 48 26 9 359 347 348 355 353 349 346 344 343 343 341 337 334 329 326 327 326 324 319 317 314 314 311 308 310 312 311 306 309 311 311
149 148 146 153 153 148 135 116 85 33 7 356 352 342 349 353 346 343 343 342 341 336 332 331 329 324 322 323 324 324 320 315 315 314 310 308 311 313 311 309 311 316 312
136 144 154 150 147 141 135 138 99 28 356 349 344 346 350 342 341 340 339 337 333 331 329 325 322 320 318 323 325 325 322 317 315 314 312 311 312 313 311 321 323 316 309
126 135 143 141 140 141 145 136 82 6 351 342 341 343 342 339 337 336 334 334 334 326 322 320 318 313 315 322 325 327 323 316 316 315 315 315 316 314 319 324 321 312 309
130 139 142 146 147 146 148 136 26 358 339 337 335 336 338 336 337 335 336 333 328 323 320 315 316 317 320 323 326 327 324 319 316 317 317 315 312 312 325 321 319 307 313
141 150 145 145 147 150 148 96 1 340 332 326 330 335 337 338 337 337 333 331 326 319 316 315 321 325 325 323 322 323 321 320 319 316 314 313 320 323 322 323 318 318 318
162 163 157 152 154 137 74 10 339 324 324 330 333 334 336 338 339 335 329 324 322 315 315 319 320 321 321 318 318 317 317 320 318 315 313 320 317 316 318 320 320 319 314
162 163 160 156 153 135 0 318 323 330 332 328 332 336 337 336 334 332 326 316 312 314 316 316 318 317 315 317 316 317 320 319 318 320 324 319 317 314 317 317 316 315 312
164 160 152 153 161 199 290 333 339 332 327 329 334 336 334 331 325 319 314 311 310 311 312 314 315 315 314 316 320 323 322 323 328 329 323 319 320 324 319 318 316 317 315
152 152 154 168 188 313 344 347 339 333 331 331 334 330 320 316 316 313 315 315 310 313 312 312 314 314 314 318 322 322 321 326 329 326 322 320 321 318 318 318 317 317 316